CDT,Max TemperatureF,Mean TemperatureF,Min TemperatureF,Max Dew PointF,MeanDew PointF,Min DewpointF,Max Humidity, Mean Humidity, Min Humidity, Max Sea Level PressureIn, Mean Sea Level PressureIn, Min Sea Level PressureIn, Max VisibilityMiles, Mean VisibilityMiles, Min VisibilityMiles, Max Wind SpeedMPH, Mean Wind SpeedMPH, Max Gust SpeedMPH,PrecipitationIn, CloudCover, Events, WindDirDegrees
2012-9-1,77,72,68,70,60,54,88,67,56,30.06,30.01,29.96,10,10,10,21,13,28,0.00,2,,68
2012-9-2,86,76,66,70,66,57,88,76,58,29.96,29.93,29.90,10,10,8,20,12,21,0.00,3,,55
2012-9-3,87,76,64,72,67,61,94,77,55,29.98,29.94,29.90,10,9,4,8,5,,0.00,0,,32
2012-9-4,91,80,66,72,67,54,94,69,43,29.93,29.89,29.82,10,9,3,21,4,38,0.00,1,Thunderstorm,182
2012-9-5,86,74,62,68,62,55,88,70,48,30.01,29.85,29.81,10,10,10,21,10,36,0.51,1,Thunderstorm,280
2012-9-6,80,70,59,63,56,50,94,67,34,30.02,29.95,29.89,10,9,2,8,4,,0.00,0,,356
2012-9-7,71,62,53,63,57,48,94,80,68,29.96,29.89,29.81,10,10,7,20,7,23,0.38,2,Thunderstorm,343
2012-9-8,71,60,48,48,47,45,88,64,41,30.02,29.95,29.83,10,10,10,20,10,24,0.00,0,,303
2012-9-9,71,60,48,52,47,45,88,67,41,30.19,30.10,29.95,10,10,10,16,9,20,0.00,0,,356
2012-9-10,77,62,46,54,48,43,93,64,36,30.24,30.17,30.08,10,10,6,14,5,21,0.00,0,,166
2012-9-11,84,68,53,57,53,48,88,61,37,30.14,30.09,30.03,10,10,10,21,10,30,0.00,0,,182
2012-9-12,87,72,57,61,55,50,88,57,31,30.16,30.11,30.07,10,10,10,16,9,22,0.00,0,,192
2012-9-13,64,55,46,52,47,39,94,75,42,30.39,30.32,30.16,10,9,0,22,10,30,0.10,4,,11
2012-9-14,73,58,42,52,44,39,94,68,31,30.41,30.36,30.32,10,8,0,16,4,22,0.00,0,,268
2012-9-15,78,61,44,48,45,41,93,60,29,30.35,30.27,30.16,10,10,10,12,4,,0.00,0,,219
2012-9-16,75,60,44,52,46,39,88,63,36,30.16,30.08,29.99,10,10,5,14,4,20,0.00,0,,198
2012-9-17,77,62,46,61,52,43,94,79,50,29.99,29.91,29.81,10,9,2,18,5,26,0.28,3,Thunderstorm,283
2012-9-18,62,50,39,43,37,30,93,65,30,30.06,30.00,29.93,10,10,10,16,7,21,0.00,1,,323
2012-9-19,41,39,37,36,34,34,87,83,76,30.06,30.05,30.04,10,10,10,5,2,,0.00,0,,145
2012-9-20,,,,,,,,,,,,,,,,,,,,,,
2012-9-21,57,50,42,48,45,41,93,80,67,29.95,29.87,29.83,10,10,8,18,9,22,0.00,2,,85
2012-9-22,60,48,37,45,36,30,100,68,42,30.24,30.08,29.85,10,10,5,22,9,30,0.00,2,,308
2012-9-23,60,45,30,37,30,27,100,62,27,30.34,30.28,30.24,10,10,10,16,6,21,0.00,0,,316
2012-9-24,73,52,30,39,33,27,93,54,23,30.26,30.09,29.92,10,10,7,21,6,25,0.00,0,,218
2012-9-25,80,62,44,54,47,39,88,62,37,29.91,29.87,29.82,10,10,10,10,5,,0.00,0,,204
2012-9-26,69,58,46,50,43,37,87,63,33,30.19,30.05,29.91,10,10,8,14,9,17,0.00,0,,39
2012-9-27,66,52,37,43,38,34,87,62,32,30.28,30.23,30.18,10,10,5,13,7,18,0.00,0,,55
2012-9-28,69,53,37,45,38,36,93,63,28,30.27,30.20,30.15,10,10,5,15,6,20,0.00,0,,22
2012-9-29,80,60,39,41,38,34,87,51,21,30.17,30.09,29.98,10,10,7,13,6,22,0.00,0,,320
2012-9-30,71,56,42,46,40,36,87,58,31,30.03,29.99,29.94,10,10,5,10,6,17,0.00,0,,60